SWA936 KPHX-KLAX

Flight info

Callsign SWA936
Flight time N/A
Altitude 38000
Route KEENS3 WLVRN ESTWD HLYWD1
Aircraft B737/M-SDE2E3FGHIRWXY/LB1

Departure

Time N/A
Airport Phoenix Sky Harbor International Airport (KPHX)

Arrival

Time 2026-05-08 01:25
Airport Los Angeles International Airport (KLAX)
Time Latitude Longitude Altitude Speed Heading
2026-05-08 01:04 34.09449 -116.39076 28206 ft 433 kts 265°
2026-05-08 01:04 34.09056 -116.42706 27695 ft 429 kts 265°
2026-05-08 01:04 34.08676 -116.46217 27211 ft 425 kts 265°
2026-05-08 01:05 34.08292 -116.49786 26716 ft 422 kts 265°
2026-05-08 01:05 34.07916 -116.53275 26243 ft 419 kts 265°
2026-05-08 01:05 34.07572 -116.56461 25799 ft 416 kts 265°
2026-05-08 01:05 34.07205 -116.59884 25315 ft 413 kts 265°
2026-05-08 01:06 34.06873 -116.63310 24871 ft 409 kts 266°
2026-05-08 01:06 34.06563 -116.66716 24406 ft 407 kts 266°
2026-05-08 01:06 34.06258 -116.70098 23902 ft 405 kts 266°
2026-05-08 01:06 34.05952 -116.73472 23422 ft 403 kts 266°
2026-05-08 01:07 34.05643 -116.76824 22887 ft 401 kts 266°
2026-05-08 01:07 34.05336 -116.80109 22413 ft 397 kts 266°
2026-05-08 01:07 34.05023 -116.83447 21915 ft 394 kts 266°
2026-05-08 01:07 34.04715 -116.86714 21455 ft 390 kts 266°
2026-05-08 01:08 34.04405 -116.89914 21019 ft 388 kts 264°
2026-05-08 01:08 34.04061 -116.93088 20986 ft 375 kts 264°
2026-05-08 01:08 34.03643 -116.96217 20321 ft 373 kts 262°
2026-05-08 01:08 34.03197 -116.99325 19375 ft 379 kts 262°
2026-05-08 01:09 34.02762 -117.02431 18599 ft 380 kts 263°
2026-05-08 01:09 34.02356 -117.05540 18163 ft 370 kts 263°
2026-05-08 01:09 34.01994 -117.08599 17699 ft 364 kts 264°
2026-05-08 01:09 34.01648 -117.11597 17311 ft 360 kts 264°
2026-05-08 01:10 34.01301 -117.14598 16948 ft 363 kts 263°
2026-05-08 01:10 34.00945 -117.17620 16557 ft 366 kts 264°
2026-05-08 01:10 34.00584 -117.20654 16204 ft 365 kts 263°
2026-05-08 01:10 34.00226 -117.23644 15826 ft 363 kts 264°
2026-05-08 01:11 33.99863 -117.26675 15471 ft 367 kts 263°
2026-05-08 01:11 33.99496 -117.29730 15086 ft 367 kts 263°
2026-05-08 01:11 33.99131 -117.32783 14690 ft 362 kts 264°
2026-05-08 01:11 33.98781 -117.35764 14341 ft 356 kts 263°
2026-05-08 01:12 33.98436 -117.38712 13976 ft 351 kts 263°
2026-05-08 01:12 33.98095 -117.41611 13588 ft 348 kts 264°
2026-05-08 01:12 33.97758 -117.44470 13207 ft 343 kts 264°
2026-05-08 01:12 33.97424 -117.47304 12843 ft 339 kts 264°
2026-05-08 01:13 33.97472 -117.50102 12461 ft 334 kts 285°
2026-05-08 01:13 33.98091 -117.52780 12177 ft 330 kts 288°
2026-05-08 01:13 33.98744 -117.55406 11832 ft 328 kts 288°
2026-05-08 01:13 33.99398 -117.58054 11488 ft 326 kts 288°
2026-05-08 01:14 34.00031 -117.60670 11160 ft 323 kts 287°
2026-05-08 01:14 34.00640 -117.63232 10834 ft 320 kts 287°
2026-05-08 01:14 34.01250 -117.65820 10496 ft 315 kts 287°
2026-05-08 01:14 34.01841 -117.68331 10181 ft 310 kts 287°
2026-05-08 01:15 34.02151 -117.70888 9873 ft 307 kts 269°
2026-05-08 01:15 34.01914 -117.73371 9917 ft 291 kts 264°
2026-05-08 01:15 34.01659 -117.75736 9681 ft 283 kts 266°
2026-05-08 01:15 34.01407 -117.78161 8961 ft 292 kts 266°
2026-05-08 01:16 34.01166 -117.80553 8506 ft 284 kts 265°
2026-05-08 01:16 34.00936 -117.82882 8160 ft 275 kts 266°
2026-05-08 01:16 34.00787 -117.84403 7949 ft 267 kts 264°
2026-05-08 01:16 34.00572 -117.86596 7626 ft 259 kts 265°
2026-05-08 01:17 34.00363 -117.88729 7344 ft 255 kts 265°
2026-05-08 01:17 34.00155 -117.90855 7067 ft 257 kts 264°
2026-05-08 01:17 33.99944 -117.93019 6785 ft 260 kts 265°
2026-05-08 01:17 33.99733 -117.95169 6506 ft 257 kts 265°
2026-05-08 01:18 33.99525 -117.97293 6218 ft 254 kts 265°
2026-05-08 01:18 33.99317 -117.99403 5913 ft 251 kts 265°
2026-05-08 01:18 33.99110 -118.01491 5598 ft 251 kts 264°
2026-05-08 01:18 33.98903 -118.03565 5271 ft 249 kts 264°
2026-05-08 01:19 33.98696 -118.05631 4977 ft 247 kts 264°
2026-05-08 01:19 33.98495 -118.07644 4870 ft 233 kts 264°
2026-05-08 01:19 33.98307 -118.09513 4778 ft 216 kts 264°
2026-05-08 01:19 33.98133 -118.11252 4638 ft 202 kts 264°
2026-05-08 01:20 33.97971 -118.12869 4527 ft 188 kts 264°
2026-05-08 01:20 33.97812 -118.14474 4015 ft 196 kts 264°
2026-05-08 01:20 33.97649 -118.16106 3682 ft 195 kts 264°
2026-05-08 01:20 33.97488 -118.17709 3436 ft 189 kts 264°
2026-05-08 01:21 33.97334 -118.19241 3235 ft 179 kts 265°
2026-05-08 01:21 33.97188 -118.20700 3058 ft 171 kts 265°
2026-05-08 01:21 33.97041 -118.22161 2877 ft 176 kts 264°
2026-05-08 01:21 33.96894 -118.23610 2701 ft 174 kts 264°
2026-05-08 01:22 33.96750 -118.25044 2567 ft 168 kts 263°
2026-05-08 01:22 33.96605 -118.26476 2341 ft 173 kts 263°
2026-05-08 01:22 33.96459 -118.27924 2094 ft 170 kts 262°
2026-05-08 01:22 33.96317 -118.29326 1891 ft 167 kts 262°
2026-05-08 01:23 33.96176 -118.30716 1673 ft 171 kts 261°
2026-05-08 01:23 33.96033 -118.32127 1441 ft 166 kts 262°
2026-05-08 01:23 33.95878 -118.33638 1202 ft 170 kts 262°
2026-05-08 01:23 33.95749 -118.34918 997 ft 165 kts 263°
2026-05-08 01:24 33.95620 -118.36259 834 ft 155 kts 262°
2026-05-08 01:24 33.95478 -118.37539 661 ft 159 kts 261°
2026-05-08 01:24 33.95341 -118.38918 406 ft 157 kts 262°
2026-05-08 01:24 33.95219 -118.40134 178 ft 145 kts 262°
2026-05-08 01:25 33.95104 -118.41247 122 ft 118 kts 263°
2026-05-08 01:25 33.95022 -118.42045 124 ft 72 kts 263°
2026-05-08 01:25 33.94964 -118.42483 125 ft 45 kts 249°
2026-05-08 01:25 33.94849 -118.42680 124 ft 2 kts 234°
2026-05-08 01:26 33.94848 -118.42680 124 ft 0 kts 234°
2026-05-08 01:27 33.94848 -118.42681 124 ft 0 kts 234°
2026-05-08 01:27 33.94828 -118.42705 123 ft 11 kts 221°
2026-05-08 01:27 33.94719 -118.42774 123 ft 23 kts 193°
2026-05-08 01:28 33.94640 -118.42657 125 ft 27 kts 83°
2026-05-08 01:28 33.94667 -118.42386 123 ft 37 kts 83°
2026-05-08 01:28 33.94701 -118.42059 125 ft 41 kts 83°
2026-05-08 01:28 33.94736 -118.41731 125 ft 39 kts 83°
2026-05-08 01:29 33.94771 -118.41417 125 ft 36 kts 76°
2026-05-08 01:29 33.94811 -118.41125 124 ft 34 kts 83°
2026-05-08 01:29 33.94838 -118.40855 124 ft 32 kts 83°
2026-05-08 01:29 33.94865 -118.40600 124 ft 30 kts 83°
2026-05-08 01:30 33.94889 -118.40361 124 ft 28 kts 83°
2026-05-08 01:30 33.94911 -118.40140 124 ft 22 kts 83°
2026-05-08 01:30 33.94834 -118.40019 124 ft 16 kts 141°
2026-05-08 01:30 33.94774 -118.40048 122 ft 7 kts 243°
2026-05-08 01:31 33.94766 -118.40066 124 ft 0 kts 242°